• In Hungary
  • List of Countries
  • For 7 days
  • Water Temperature
  • Satellite Maps
  • Weather Map
  • News
  • Weather Widgets
  • user-avatar
    Login

    Hourly Weather Konieczno

    Today, 24 September, Monday

    Time Temperature Precipitation Wind Pressure Humidity
    00:00 +15°C° 1 mm 9 mps 727 mmHg 79%
    01:00 +15°C° 0 mm 8 mps 727 mmHg 83%
    02:00 +12°C° 0.6 mm 9 mps 729 mmHg 82%
    03:00 +9°C° 0.6 mm 10 mps 730 mmHg 82%
    04:00 +6°C° 0.6 mm 11 mps 732 mmHg 82%
    05:00 +7°C° 0.1 mm 10 mps 733 mmHg 81%
    06:00 +7°C° 0.1 mm 9 mps 735 mmHg 81%
    07:00 +6°C° 0 mm 9 mps 736 mmHg 80%
    08:00 +7°C° 0.1 mm 9 mps 737 mmHg 77%
    09:00 +7°C° 0.1 mm 9 mps 738 mmHg 74%
    10:00 +7°C° 0.1 mm 9 mps 738 mmHg 72%
    11:00 +7°C° 0.1 mm 9 mps 739 mmHg 69%
    12:00 +7°C° 0.1 mm 9 mps 739 mmHg 67%
    13:00 +8°C° 0.1 mm 9 mps 740 mmHg 64%
    14:00 +8°C° 0.1 mm 9 mps 740 mmHg 62%
    15:00 +8°C° 0.1 mm 9 mps 740 mmHg 61%
    16:00 +8°C° 0.1 mm 9 mps 740 mmHg 59%
    17:00 +7°C° 0.1 mm 8 mps 741 mmHg 63%
    18:00 +8°C° 0.1 mm 7 mps 741 mmHg 66%
    19:00 +7°C° 0.1 mm 6 mps 742 mmHg 70%
    20:00 +7°C° 0 mm 6 mps 742 mmHg 70%
    21:00 +5°C° 0 mm 6 mps 743 mmHg 71%
    22:00 +5°C° 0 mm 6 mps 743 mmHg 71%
    23:00 +5°C° 0 mm 6 mps 744 mmHg 72%

    Tomorrow, 25 September, Tuesday

    Time Temperature Precipitation Wind Pressure Humidity
    00:00 +6°C° 0 mm 5 mps 744 mmHg 72%
    01:00 +5°C° 0 mm 5 mps 745 mmHg 73%
    02:00 +5°C° 0 mm 5 mps 745 mmHg 75%
    03:00 +5°C° 0 mm 5 mps 745 mmHg 76%
    04:00 +3°C° 0 mm 5 mps 746 mmHg 78%
    05:00 +3°C° 0 mm 6 mps 746 mmHg 77%
    06:00 +4°C° 0 mm 6 mps 747 mmHg 76%
    07:00 +4°C° 0 mm 6 mps 748 mmHg 76%
    08:00 +5°C° 0 mm 6 mps 748 mmHg 68%
    09:00 +8°C° 0 mm 6 mps 749 mmHg 61%
    10:00 +9°C° 0 mm 6 mps 749 mmHg 53%
    11:00 +10°C° 0.1 mm 7 mps 749 mmHg 50%
    12:00 +11°C° 0.1 mm 7 mps 750 mmHg 46%
    13:00 +11°C° 0.1 mm 7 mps 750 mmHg 43%
    14:00 +11°C° 0 mm 7 mps 750 mmHg 43%
    15:00 +10°C° 0 mm 6 mps 750 mmHg 42%
    16:00 +10°C° 0 mm 6 mps 751 mmHg 42%
    17:00 +9°C° 0 mm 5 mps 751 mmHg 47%
    18:00 +8°C° 0 mm 4 mps 751 mmHg 51%
    19:00 +8°C° 0 mm 3 mps 752 mmHg 56%
    20:00 +7°C° 0 mm 3 mps 752 mmHg 58%
    21:00 +6°C° 0 mm 2 mps 753 mmHg 60%
    22:00 +6°C° 0 mm 2 mps 753 mmHg 63%
    23:00 +5°C° 0 mm 2 mps 753 mmHg 64%

    Day after tomorrow, 26 September, Wednesday

    Time Temperature Precipitation Wind Pressure Humidity
    00:00 +5°C° 0 mm 2 mps 754 mmHg 64%
    01:00 +6°C° 0 mm 1 mps 754 mmHg 65%
    02:00 +5°C° 0 mm 2 mps 754 mmHg 66%
    03:00 +4°C° 0 mm 2 mps 754 mmHg 67%
    04:00 +4°C° 0 mm 2 mps 754 mmHg 67%
    05:00 +5°C° 0 mm 2 mps 754 mmHg 66%
    06:00 +5°C° 0 mm 2 mps 754 mmHg 65%
    07:00 +6°C° 0 mm 2 mps 754 mmHg 63%
    08:00 +8°C° 0 mm 3 mps 754 mmHg 57%
    09:00 +10°C° 0 mm 3 mps 754 mmHg 50%
    10:00 +12°C° 0 mm 4 mps 753 mmHg 43%
    11:00 +12°C° 0 mm 4 mps 753 mmHg 41%
    12:00 +13°C° 0 mm 4 mps 752 mmHg 39%
    13:00 +14°C° 0 mm 4 mps 752 mmHg 37%
    14:00 +14°C° 0 mm 4 mps 751 mmHg 38%
    15:00 +14°C° 0 mm 4 mps 751 mmHg 40%
    16:00 +13°C° 0 mm 4 mps 750 mmHg 41%
    17:00 +13°C° 0 mm 4 mps 750 mmHg 45%
    18:00 +12°C° 0 mm 3 mps 750 mmHg 48%
    19:00 +11°C° 0 mm 3 mps 750 mmHg 51%
    20:00 +11°C° 0 mm 4 mps 750 mmHg 51%
    21:00 +11°C° 0 mm 4 mps 749 mmHg 50%
    22:00 +10°C° 0 mm 5 mps 749 mmHg 50%
    23:00 +10°C° 0 mm 5 mps 749 mmHg 50%

    27 September, Thursday

    Time Temperature Precipitation Wind Pressure Humidity
    00:00 +9°C° 0 mm 5 mps 749 mmHg 50%
    01:00 +9°C° 0 mm 5 mps 748 mmHg 51%
    02:00 +9°C° 0 mm 6 mps 748 mmHg 51%
    03:00 +9°C° 0 mm 6 mps 748 mmHg 50%
    04:00 +9°C° 0 mm 6 mps 747 mmHg 50%
    05:00 +9°C° 0 mm 6 mps 747 mmHg 50%
    06:00 +10°C° 0 mm 6 mps 747 mmHg 49%
    07:00 +10°C° 0 mm 6 mps 747 mmHg 49%
    08:00 +13°C° 0 mm 6 mps 747 mmHg 48%
    09:00 +14°C° 0 mm 6 mps 747 mmHg 48%
    10:00 +16°C° 0 mm 6 mps 747 mmHg 47%
    11:00 +17°C° 0 mm 6 mps 747 mmHg 48%
    12:00 +19°C° 0 mm 6 mps 747 mmHg 49%
    13:00 +20°C° 0 mm 6 mps 746 mmHg 50%
    14:00 +20°C° 0 mm 6 mps 746 mmHg 52%
    15:00 +20°C° 0 mm 5 mps 746 mmHg 55%
    16:00 +20°C° 0 mm 5 mps 746 mmHg 57%
    17:00 +18°C° 0 mm 4 mps 746 mmHg 63%
    18:00 +17°C° 0 mm 4 mps 746 mmHg 69%
    19:00 +16°C° 0 mm 3 mps 745 mmHg 75%
    20:00 +14°C° 0 mm 3 mps 745 mmHg 77%
    21:00 +14°C° 0 mm 3 mps 745 mmHg 79%
    22:00 +14°C° 0 mm 2 mps 745 mmHg 81%
    23:00 +14°C° 0 mm 2 mps 745 mmHg 80%

    28 September, Friday

    Time Temperature Precipitation Wind Pressure Humidity
    00:00 +13°C° 0 mm 3 mps 744 mmHg 80%
    01:00 +12°C° 0 mm 3 mps 744 mmHg 80%
    02:00 +12°C° 0 mm 3 mps 744 mmHg 78%
    03:00 +12°C° 0 mm 3 mps 743 mmHg 77%
    04:00 +12°C° 0 mm 3 mps 743 mmHg 75%
    05:00 +12°C° 0 mm 3 mps 743 mmHg 73%
    06:00 +13°C° 0 mm 3 mps 742 mmHg 70%
    07:00 +13°C° 0 mm 3 mps 742 mmHg 67%
    08:00 +16°C° 0 mm 3 mps 742 mmHg 61%
    09:00 +18°C° 0 mm 4 mps 742 mmHg 54%
    10:00 +20°C° 0 mm 4 mps 742 mmHg 48%
    11:00 +20°C° 0 mm 4 mps 742 mmHg 45%
    12:00 +21°C° 0 mm 4 mps 741 mmHg 43%
    13:00 +22°C° 0 mm 4 mps 741 mmHg 40%
    14:00 +21°C° 0 mm 4 mps 741 mmHg 43%
    15:00 +21°C° 0 mm 4 mps 741 mmHg 46%
    16:00 +20°C° 0 mm 3 mps 740 mmHg 49%
    17:00 +19°C° 0 mm 3 mps 740 mmHg 56%
    18:00 +17°C° 0 mm 3 mps 741 mmHg 63%
    19:00 +15°C° 0 mm 2 mps 741 mmHg 70%
    20:00 +15°C° 0 mm 2 mps 741 mmHg 73%
    21:00 +14°C° 0 mm 2 mps 741 mmHg 76%
    22:00 +13°C° 0 mm 2 mps 741 mmHg 79%
    23:00 +13°C° 0.1 mm 2 mps 741 mmHg 79%

    29 September, Saturday

    Time Temperature Precipitation Wind Pressure Humidity
    00:00 +13°C° 0.1 mm 2 mps 741 mmHg 78%
    01:00 +13°C° 0.1 mm 2 mps 741 mmHg 78%
    02:00 +12°C° 0.8 mm 2 mps 742 mmHg 81%
    03:00 +11°C° 0.8 mm 3 mps 742 mmHg 84%
    04:00 +10°C° 0.8 mm 3 mps 742 mmHg 88%
    05:00 +9°C° 0.5 mm 3 mps 742 mmHg 87%
    06:00 +9°C° 0.5 mm 3 mps 743 mmHg 87%
    07:00 +9°C° 0.5 mm 2 mps 743 mmHg 87%
    08:00 +10°C° 0 mm 3 mps 744 mmHg 80%
    09:00 +11°C° 0 mm 3 mps 744 mmHg 72%
    10:00 +12°C° 0 mm 3 mps 745 mmHg 64%
    11:00 +12°C° 0 mm 3 mps 745 mmHg 59%
    12:00 +13°C° 0 mm 3 mps 745 mmHg 54%
    13:00 +13°C° 0 mm 3 mps 745 mmHg 49%
    14:00 +13°C° 0 mm 3 mps 745 mmHg 49%
    15:00 +13°C° 0 mm 3 mps 745 mmHg 48%
    16:00 +12°C° 0 mm 3 mps 745 mmHg 47%
    17:00 +11°C° 0 mm 3 mps 746 mmHg 50%
    18:00 +10°C° 0 mm 3 mps 746 mmHg 53%
    19:00 +9°C° 0 mm 2 mps 746 mmHg 55%
    20:00 +8°C° 0 mm 2 mps 747 mmHg 56%
    21:00 +7°C° 0 mm 2 mps 747 mmHg 58%
    22:00 +7°C° 0 mm 2 mps 747 mmHg 59%
    23:00 +6°C° 0 mm 2 mps 747 mmHg 60%
    Show more